This is the latest recevied weather packets stored in our database for station/object K5OBH. If no packets are shown the sender has not sent any weather packets the latest 10 day(s).
| Time | Temp. | Humidity | Pressure | Rain* | Wind** | Luminosity | Snow |
|---|---|---|---|---|---|---|---|
| 1777923895 | 26.67° C | 52% | 1004.9 hPa | 0 mm | - | 533 W/m² | - |
| 1777923591 | 26.67° C | 54% | 1004.7 hPa | 0 mm | - | 550 W/m² | - |
| 1777923289 | 26.67° C | 52% | 1004.9 hPa | 0 mm | - | 648 W/m² | - |
| 1777922987 | 26.11° C | 53% | 1004.8 hPa | 0 mm | - | 626 W/m² | - |
| 1777922684 | 26.67° C | 53% | 1005.2 hPa | 0 mm | - | 654 W/m² | - |
| 1777922383 | 26.67° C | 51% | 1005.4 hPa | 0 mm | - | 648 W/m² | - |
| 1777922081 | 26.67° C | 52% | 1005.1 hPa | 0 mm | - | 648 W/m² | - |
| 1777921776 | 26.11° C | 53% | 1005.2 hPa | 0 mm | - | 679 W/m² | - |
| 1777921472 | 26.11° C | 52% | 1005.3 hPa | 0 mm | - | 642 W/m² | - |
| 1777921168 | 25.56° C | 51% | 1005.4 hPa | 0 mm | - | 724 W/m² | - |
| 1777920866 | 25.56° C | 52% | 1005.3 hPa | 0 mm | - | 550 W/m² | - |
| 1777920561 | 26.11° C | 54% | 1005.1 hPa | 0 mm | - | 614 W/m² | - |
| 1777920257 | 25.56° C | 53% | 1005.3 hPa | 0 mm | - | 653 W/m² | - |
| 1777919954 | 26.11° C | 52% | 1005.5 hPa | 0 mm | - | 664 W/m² | - |
| 1777919651 | 25.56° C | 52% | 1005.6 hPa | 0 mm | - | 693 W/m² | - |
| 1777919349 | 25° C | 54% | 1005.6 hPa | 0 mm | - | 612 W/m² | - |
| 1777919046 | 25° C | 53% | 1005.8 hPa | 0 mm | - | 575 W/m² | - |
| 1777918742 | 25° C | 53% | 1005.9 hPa | 0 mm | - | 618 W/m² | - |
| 1777918440 | 25° C | 53% | 1006.2 hPa | 0 mm | - | 598 W/m² | - |
| 1777918138 | 25° C | 53% | 1006 hPa | 0 mm | - | 559 W/m² | - |
| 1777917837 | 25° C | 53% | 1006.4 hPa | 0 mm | - | 595 W/m² | - |
| 1777917535 | 25° C | 53% | 1006 hPa | 0 mm | - | 556 W/m² | - |
| 1777917231 | 25° C | 55% | 1006.3 hPa | 0 mm | - | 558 W/m² | - |
| 1777916929 | 24.44° C | 54% | 1006.4 hPa | 0 mm | - | 538 W/m² | - |
| 1777916626 | 24.44° C | 55% | 1006.4 hPa | 0 mm | - | 640 W/m² | - |
* Rain latest hour (hover to see other rain measurements)
** Current wind speed in m/s (hover to see current wind gust speed)